Hourly Weather Roundup
Issued by NWS Central Illinois

Home | Current Version | Previous Version | Text Only | Print | Product List | Glossary On
Versions: 1 2 3 4 5 6 7 8 9 10 11 12 13 14 15 16 17 18 19 20 21 22 23 24 25 26 27 28 29 30 31 32 33 34 35 36 37 38 39 40 41 42 43 44 45 46 47 48 49 50
000
NZUS43 KILX 170410
HWRILX

Area Weather Roundup
National Weather Service Lincoln IL
1000 PM CST SAT DEC 16 2017

NOTE:  "FAIR" indicates few or no clouds below 12,000 feet, with
       no sigificant weather and/or obstructions to visibility.


CITY           SKY/WX    TMP DP  RH WIND       PRES   REMARKS
Bloomington    CLOUDY    35  28  75 S10       30.04R WCI  27
Champaign      CLOUDY    35  28  75 S10       30.07R WCI  27
Danville       CLOUDY    40  29  64 S12       30.06R WCI  33
Decatur        CLOUDY    41  30  65 SW10      30.07R WCI  35
Effingham      CLOUDY    42  31  64 SE6       30.11F
Flora          CLOUDY    42  32  67 S10       30.12S
Galesburg      CLOUDY    28  24  85 CALM      30.01F
Jacksonville   MOCLDY    46  26  45 S6        30.02S
Lacon          CLOUDY    27  21  79 CALM      30.03S
Lawrenceville  CLOUDY    34  28  79 S8        30.15R WCI  27
Litchfield     PTCLDY    40  30  67 S10       30.06S WCI  34
$$


CITY           SKY/WX    TMP DP  RH WIND       PRES   REMARKS
Lincoln        CLOUDY    40  30  67 S9        30.03S WCI  34
Macomb         CLOUDY    30  22  73 CALM      30.02F
Mattoon        CLEAR     40  30  67 S9        30.07S WCI  34
Mt Carmel AP   PTCLDY    40  29  65 S8        30.14R WCI  34
Olney-Noble AP PTCLDY    42  28  58 S6        30.13S
Paris AP       PTCLDY    40  31  69 S13       30.11R WCI  33
Peoria         CLOUDY    35  26  69 CALM      30.03R
Pontiac        CLOUDY    27  21  77 SE6       30.06R WCI  20
Rantoul        CLOUDY    41  31  68 S8        30.07R
Robinson       PTCLDY    37  28  72 S6        30.14S WCI  32
Springfield    PTCLDY    43  30  60 S12       30.04R
Taylorville    CLOUDY    40  29  65 S13       30.06S WCI  33
$$

...REGIONAL REPORTS...


CITY           SKY/WX    TMP DP  RH WIND       PRES   REMARKS
Chicago O`Hare PTCLDY    28  26  92 N5        30.06R WCI  23
Kankakee       CLOUDY    30  22  74 S5        30.06R WCI  25
Moline         CLOUDY    27  21  78 NE3       30.01S
Mount Sterling CLOUDY    39  25  57 S7        30.00S WCI  34
Mount Vernon   CLOUDY    39  30  70 S6        30.13R WCI  35
Pittsfield     CLOUDY    45  28  50 CALM      30.03R
Quincy         CLOUDY    43  26  51 S9        30.00S
Rockford       CLEAR     30  25  81 NE8       30.09R WCI  22
$$


CITY           SKY/WX    TMP DP  RH WIND       PRES   REMARKS
Burlington     CLOUDY    36  27  69 NE5       29.98F WCI  32
Cedar Rapids   CLOUDY    33  24  69 E5        29.99S WCI  29
Des Moines     PTCLDY    38  27  64 NE8       29.96F WCI  32
Kirksville     CLOUDY    43  29  57 SW5       29.99R
Ottumwa        CLOUDY    32  24  72 E5        29.96F WCI  27
St Louis       CLOUDY    48  29  47 S8        30.05S
$$


CITY           SKY/WX    TMP DP  RH WIND       PRES   REMARKS
Terre Haute    CLEAR     41  28  60 S9        30.13R
Evansville     PTCLDY    43  30  60 SW8       30.17R
Indianapolis   PTCLDY    39  28  64 SW12      30.12R WCI  32
Lafayette      CLOUDY    34  28  79 CALM      30.08R
Madison        CLOUDY    30  26  85 NE7       30.11R WCI  23
Milwaukee      CLOUDY    36  32  85 E13       30.10R WCI  27
$$





USA.gov is the U.S. government's official web portal to all federal, state and local government web resources and services.